RH
89 88 88 89 91 89 94 92 97 93 90 98 98 96 92 88 89 86 88 88 87 87 85 85 83 81 80 79 79 71 64 68 68 68 67 67 66 70
94 92 91 94 92 95 98 97 97 99 99 95 98 92 85 79 86 80 88 85 81 79 76 74 74 73 72 68 65 66 70 69 67 67 66 66 65 65
90 90 94 93 95 95 95 94 95 94 98 99 96 94 91 88 87 86 86 85 87 83 77 73 69 67 67 67 67 66 65 65 68 69 69 68 67 66
90 90 91 87 93 91 92 92 90 90 94 97 95 96 94 87 88 86 81 77 80 73 69 69 68 66 67 68 68 69 70 70 71 72 72 69 70 71
85 84 84 86 89 88 86 86 86 79 89 91 96 92 94 86 83 71 67 71 64 69 67 70 71 70 72 72 72 73 75 76 74 74 76 75 73 73
81 77 72 71 74 77 76 72 71 78 79 85 89 88 89 84 85 78 74 72 72 64 69 67 68 69 69 71 71 75 78 74 72 73 71 75 76 74
82 76 75 76 73 67 67 70 66 73 80 84 81 78 79 77 78 76 76 75 68 77 76 69 70 70 69 70 74 77 74 74 75 78 73 71 75 75
72 70 69 74 69 71 70 69 68 66 71 76 80 75 77 79 76 77 77 77 80 77 78 72 69 72 69 70 73 74 75 76 80 74 72 72 76 76
71 72 66 64 68 67 72 76 72 72 74 71 74 76 75 76 78 78 76 79 78 68 72 77 70 76 68 58 69 74 74 79 72 72 75 75 79 79
73 73 73 74 70 70 65 68 69 72 73 67 70 71 72 71 74 75 76 74 72 71 69 83 75 78 69 69 69 76 74 69 71 72 72 76 78 81
72 72 72 71 76 75 69 70 70 72 69 68 68 68 68 66 67 69 76 82 78 71 72 92 76 81 78 74 74 78 71 70 76 73 74 77 81 81
70 71 73 72 67 76 68 66 71 71 73 63 62 66 71 71 71 72 81 93 91 86 86 84 83 84 86 76 79 71 70 72 73 74 75 80 84 84
70 71 68 70 69 69 73 68 72 73 68 67 70 68 69 66 69 72 76 89 93 92 77 86 94 91 92 90 82 80 80 78 75 76 76 81 80 81
66 67 70 75 71 70 71 70 72 71 68 72 75 73 74 75 78 81 81 82 82 87 80 88 97 97 96 94 88 81 84 82 82 83 86 86 91 89
75 77 80 77 74 74 71 67 74 70 73 78 80 80 79 85 88 86 86 86 88 88 86 94 96 95 96 96 94 88 90 83 85 93 85 84 84 86
81 80 77 81 77 73 73 72 71 72 75 78 81 81 85 87 86 86 93 90 89 84 87 90 89 92 94 90 93 92 89 95 87 84 87 88 76 73
84 82 84 80 80 78 77 77 78 79 79 82 84 85 86 86 86 86 91 91 91 90 88 83 84 87 92 97 97 87 86 89 89 88 89 91 84 75
85 87 85 83 81 76 75 78 81 80 82 80 79 84 91 92 93 90 89 91 93 89 90 87 89 90 81 80 84 90 88 85 86 89 90 95 89 78
88 90 86 85 83 79 80 83 84 80 82 85 85 84 91 94 93 92 90 90 88 88 89 89 92 94 93 91 71 72 96 90 86 84 80 86 92 86
86 88 88 86 83 83 82 84 83 82 87 88 89 89 95 96 96 94 93 96 92 88 89 88 91 93 94 93 94 82 80 93 94 89 87 84 81 79
89 88 86 86 84 85 84 85 87 88 90 90 90 95 94 96 95 93 92 88 86 89 93 89 87 81 95 94 93 81 76 79 86 97 94 94 89 83
86 86 85 86 87 89 89 89 90 86 86 89 92 94 94 94 95 93 89 92 88 90 92 90 88 89 93 93 92 91 83 78 76 84 98 100 100 96
88 87 88 89 90 90 90 90 92 90 88 90 92 93 94 94 91 90 89 88 90 92 88 90 86 85 89 92 93 90 92 87 84 88 89 99 100 100
Wind_Speed
7 8 8 6 5 6 4 4 2 3 3 4 3 5 5 5 7 7 7 10 12 12 12 12 11 10 9 8 9 10 9 11 12 14 15 16 17 18
3 2 3 4 2 3 1 2 2 2 2 2 4 4 4 6 8 6 5 6 12 11 10 9 9 8 7 7 9 9 10 13 14 15 17 17 18 19
6 5 6 6 4 4 5 4 4 2 2 3 4 3 3 6 4 4 4 3 3 6 9 8 7 4 8 9 11 13 13 14 15 16 17 17 18 20
5 6 6 5 8 6 4 5 5 4 1 3 3 3 5 3 2 3 3 2 3 4 8 4 5 8 10 11 11 12 13 13 15 15 16 17 18 20
8 8 7 6 7 5 6 5 5 4 3 3 3 2 1 2 1 2 5 4 4 6 5 4 10 11 11 11 11 12 13 12 14 15 16 17 19 19
9 9 9 8 8 6 6 5 4 4 4 4 3 2 1 2 1 3 4 4 6 3 1 5 10 10 11 11 11 12 12 13 15 15 16 13 15 17
8 8 8 9 12 9 5 4 5 4 3 3 3 2 2 1 2 3 4 7 4 1 5 6 7 6 6 8 9 12 15 15 14 11 12 15 18 20
8 8 7 9 11 12 12 11 7 4 3 3 2 2 1 1 2 4 5 6 4 2 9 9 7 6 6 5 13 16 15 14 12 13 14 17 19 21
6 5 5 5 7 6 10 10 11 11 10 4 4 2 2 3 4 5 5 6 5 6 8 7 3 6 6 8 14 13 12 10 15 17 18 18 21 21
4 4 5 4 4 4 4 5 5 6 6 4 4 2 2 4 3 4 4 7 9 5 3 5 5 7 9 8 13 11 7 16 17 15 20 21 20 21
3 3 3 3 4 6 4 4 4 4 6 8 6 4 5 5 5 3 4 6 5 3 2 3 6 9 9 6 6 8 18 17 16 20 22 19 19 21
3 3 4 3 2 5 3 1 0 0 2 3 3 3 5 5 8 4 3 4 4 6 1 6 6 5 6 4 6 9 8 13 16 19 19 18 18 9
4 3 2 2 1 3 5 3 1 3 1 2 2 2 2 4 4 4 4 3 4 6 7 6 5 7 4 7 8 9 8 8 10 10 16 16 19 17
5 3 3 5 2 3 4 5 5 4 1 1 1 1 3 3 4 5 5 4 5 10 11 9 5 7 8 9 10 8 9 9 7 9 8 14 17 17
4 7 8 7 5 1 4 6 6 2 1 1 1 2 3 3 5 4 5 6 8 7 5 5 6 7 7 9 9 10 11 7 8 6 9 10 11 10
8 6 6 6 5 2 1 2 2 2 1 1 1 2 2 2 3 3 3 5 6 5 5 5 7 7 8 8 8 11 8 6 7 10 9 10 10 9
7 3 4 4 4 4 3 3 3 3 3 3 2 2 3 3 3 3 3 3 4 6 8 7 7 9 8 11 8 8 8 8 6 9 10 10 10 9
6 5 6 6 6 6 5 4 4 4 4 3 3 3 3 3 5 4 2 4 6 6 7 7 8 9 5 5 12 8 6 8 7 7 8 8 10 9
8 7 6 6 6 6 5 5 5 5 3 3 3 4 3 3 5 5 5 4 6 6 7 6 7 6 7 9 6 9 8 8 9 9 7 8 10 11
8 7 7 6 6 6 6 5 5 4 4 4 3 4 3 3 3 4 4 5 6 7 7 6 5 6 7 6 8 9 8 8 7 8 8 9 10 17
7 6 6 6 6 6 6 5 6 5 5 4 4 3 3 3 4 4 4 9 10 6 7 8 7 15 8 7 5 7 7 8 10 8 8 8 8 5
6 7 6 5 5 6 5 5 5 5 5 4 4 4 4 4 5 5 4 5 6 6 8 8 8 7 4 4 8 9 8 7 9 7 9 7 4 6
6 6 5 6 6 6 5 6 6 6 5 4 5 4 3 4 4 4 4 5 6 7 7 8 7 5 5 6 9 7 9 8 5 4 3 9 8 9
Wind_Direction
258 251 243 243 197 203 189 198 250 179 227 177 121 74 79 75 53 53 56 37 41 31 36 28 16 357 345 334 321 304 299 301 295 291 288 289 290 294
349 303 323 352 10 65 161 198 228 228 149 28 61 88 63 70 56 55 57 46 35 4 2 356 336 319 311 316 312 315 323 309 304 302 300 300 297 294
33 60 58 45 45 38 37 43 57 24 222 87 68 76 49 53 42 23 14 21 23 343 336 332 317 342 348 333 326 318 308 307 304 308 301 302 295 290
75 78 71 75 69 63 65 65 68 35 44 93 77 63 70 29 356 357 341 350 316 319 326 347 340 353 343 333 326 318 312 312 307 306 301 301 304 300
59 65 63 81 84 83 86 87 82 67 56 100 102 40 106 58 286 320 323 315 323 304 316 13 350 349 338 331 326 318 317 316 306 306 305 301 297 295
59 67 67 67 79 80 79 81 94 100 101 100 96 125 62 65 12 340 313 318 316 332 352 346 332 325 324 326 321 318 307 300 298 291 289 299 300 301
81 78 77 83 83 80 82 69 87 93 82 101 84 97 64 40 11 327 307 326 337 58 331 329 321 314 321 324 320 309 310 306 297 305 314 316 309 309
94 80 67 58 70 73 72 75 73 87 122 101 151 112 100 359 343 341 337 350 335 43 338 312 305 311 316 323 319 317 311 304 314 326 322 312 309 306
106 103 89 72 70 67 65 61 65 68 66 73 81 57 358 1 326 327 337 323 299 317 311 301 320 310 319 314 311 313 308 321 334 321 313 308 310 309
95 97 100 101 98 94 90 88 73 66 70 62 57 40 314 325 321 320 331 310 297 289 302 282 329 316 319 311 311 325 334 337 326 319 316 310 310 308
123 129 118 84 112 82 71 67 62 65 44 38 31 32 33 5 25 342 335 327 318 313 340 310 325 323 317 320 333 335 325 322 318 320 315 312 311 314
162 170 164 172 143 129 102 97 311 144 4 9 27 37 28 17 9 358 325 315 308 304 138 337 318 339 321 317 322 313 309 309 312 314 313 311 312 306
185 192 213 238 150 160 157 178 222 142 14 354 352 14 18 356 356 345 328 291 284 267 290 326 307 311 274 301 305 305 293 293 309 314 311 310 310 306
197 195 204 217 217 226 190 232 169 152 179 270 276 350 349 355 348 332 312 294 276 272 289 287 272 290 293 292 297 303 298 297 295 311 308 310 306 304
183 190 195 209 199 216 266 226 164 167 200 274 309 343 341 334 318 324 316 307 299 285 278 275 282 302 291 286 288 294 304 312 306 306 314 312 307 306
191 193 189 179 175 183 195 190 210 195 198 231 260 326 310 327 332 348 308 322 313 311 301 293 298 291 285 276 281 286 291 291 306 308 312 302 298 290
163 175 178 189 201 201 200 218 222 208 212 203 230 296 304 325 323 319 291 319 320 315 320 320 315 293 266 264 279 275 291 291 296 304 311 308 298 294
173 187 203 211 215 210 205 208 207 219 210 230 263 290 308 316 314 318 330 325 319 315 312 316 324 333 321 274 228 274 288 295 305 308 302 299 301 306
204 199 203 207 211 207 197 201 209 212 206 214 253 283 286 295 311 315 326 326 317 307 307 310 319 324 318 309 288 246 277 295 305 308 307 298 291 294
206 202 207 205 208 202 202 208 211 204 205 218 233 264 260 271 293 302 314 313 308 308 316 312 305 314 304 301 304 296 276 277 290 305 311 305 289 281
197 201 199 200 203 205 201 202 202 207 209 213 219 228 241 259 281 287 299 313 313 310 308 310 307 307 294 284 279 291 302 270 267 286 301 305 314 313
198 200 200 200 199 193 197 201 209 225 211 216 226 237 239 241 259 277 296 309 306 300 294 293 302 310 298 290 304 304 301 311 310 303 316 322 323 323
197 196 197 198 200 194 193 201 209 221 223 223 231 232 233 249 247 259 284 294 297 299 299 307 314 315 288 293 302 303 299 310 322 344 337 342 334 323